User: anonymous   Login
Location: NC_16_and_73
(35.4490°N, 81.0150°W)
Time: 07:14:38
(UTC-05:00)
Language:

Iridium 63 - Orbit

View from above orbital plane
View from above orbital plane
View from above satellite
View from above satellite

Ground track
Ground track

The orbit data is extracted from the following two-line orbital elements,

1 25286U 98021B   14352.22341348  .00000298  00000-0  98998-4 0   981
2 25286 086.4002 245.3884 0002050 107.9961 003.4142 14.34333493874302
Epoch (UTC): 18 December 2014 05:21:42
Eccentricity: 0.0002050
inclination: 86.4002°
perigee height: 776 km
apogee height: 779 km
right ascension of ascending node: 245.3884°
argument of perigee: 107.9961°
revolutions per day: 14.34333493
mean anomaly at epoch: 3.4142°
orbit number at epoch: 87430

The dashed part of the orbit path shows where the satellite is in the earth's shadow,  

DLR